Regional Weather Roundup
Issued by NWS Cleveland, OH

Home | Current Version | Previous Version | Graphics & Text | Print | Product List | Glossary On
Versions: 1 2 3 4 5 6 7 8 9 10 11 12 13 14 15 16 17 18 19 20 21 22 23 24 25 26 27 28 29 30 31 32 33 34 35 36 37 38 39 40 41 42 43 44 45 46 47 48 49 50
000
ASUS41 KCLE 231710
RWRCLE
OHIO REGIONAL WEATHER ROUNDUP
NATIONAL WEATHER SERVICE CLEVELAND, OH
100 PM EDT SUN APR 23 2017

NOTE: "FAIR" INDICATES FEW OR NO CLOUDS BELOW 12,000 FEET WITH NO
SIGNIFICANT WEATHER AND/OR OBSTRUCTIONS TO VISIBILITY.

OHZ001>008-015>018-024>027-034-035-043-044-231800-
   NORTHWEST OHIO

CITY           SKY/WX    TMP DP  RH WIND       PRES   REMARKS
DEFIANCE       SUNNY     60  33  36 E8        30.10F
FINDLAY        SUNNY     63  35  35 NE10      30.09S
TOLEDO EXPRESS SUNNY     63  21  20 E7        30.09F
TOLEDO EXEC    SUNNY     61  37  41 NE7       30.11F
LIMA           SUNNY     62  37  39 NE9       30.09S
$$

OHZ009>014-019>023-028>033-038-089-231800-
   NORTHEAST OHIO

CITY           SKY/WX    TMP DP  RH WIND       PRES   REMARKS
CLE-HOPKINS    MOSUNNY   64  33  31 VRB7      30.12S
CLE-LAKEFRONT  SUNNY     51  43  74 N10       30.11R
CUY CO. ARPT   SUNNY     59  43  55 N12       30.11
LORAIN-ELYRIA  SUNNY     62  30  29 VRB5      30.10F
ASHTABULA      SUNNY     60  30  32 CALM      30.11F
AKRON-CANTON   MOSUNNY   61  33  35 E10G18    30.10S
WOOSTER        SUNNY     60  35  39 E7        30.10F
MANSFIELD      SUNNY     61  32  33 E9        30.09S
YOUNGSTOWN     MOSUNNY   61  33  35 E3        30.09F
$$

OHZ042-051>053-060>062-070>072-077>081-231800-
  SOUTHWEST OHIO

CITY           SKY/WX    TMP DP  RH WIND       PRES   REMARKS
CINC-COVINGTON CLOUDY    59  37  44 NE15      30.00F
CINC-LUNKEN    CLOUDY    59  43  55 NE9       30.01F
HAMILTON       MOSUNNY   63  41  44 NE9       30.01F
DAYTON         MOSUNNY   63  33  32 NE17G25   30.04F
WRIGHT-PAT AFB SUNNY     64  33  31 NE12G18   30.02F
DAYTON GENERAL SUNNY     62  37  39 NE18      29.99F
WILMINGTON     MOSUNNY   56  40  55 NE16G23   29.99F
$$

OHZ036-037-039>041-045>050-054>059-063>069-073>076-082>088-231800-
  CENTRAL AND SOUTHEAST OHIO

CITY           SKY/WX    TMP DP  RH WIND       PRES   REMARKS
COLUMBUS       PTSUNNY   64  37  36 NE13      30.04F
OSU AIRPORT    CLOUDY    63  35  35 NE10      30.03F
BOLTON FIELD   SUNNY     63  37  39 NE8G18    30.04F
RICKENBACK AFB PTSUNNY   60  39  45 NE13G20   30.02F
NEWARK         MOSUNNY   63  35  35 NE10      30.05F
MARION         SUNNY     65  31  28 E10       30.07F
LANCASTER      MOSUNNY   65  38  36 NE13      30.03F
ZANESVILLE     MOSUNNY   64  35  34 NE10      30.05F
NEW PHILLY     NOT AVBL
$$




USA.gov is the U.S. government's official web portal to all federal, state and local government web resources and services.